Погода в Дерзиге-Аксы

Россия / Республика Тыва     51°27′24″N   95°36′26″E
темп.,
°C
ветер,
м/с
пор.,
м/с
влажн.,
%
обл.,
%
осадки,
мм/ч
давл.,
гПа
погр.,
м
28 февраля, вс
вс2801:00−23ю0085100 0.0 104120
04:00−24вюв0197100 0.1 104220
07:00−25юв1199100 0.1 104520
10:00−20ю1194100 0.0 1043188
13:00−16сз1185100 0.1 1041345
16:00−15зсз118677 0.0 1039243
19:00−24сз119849 0.0 104120
22:00−25в119458 0.0 104220
1 марта, пн
пн101:00−23вюв119378 0.0 104020
04:00−23юв1192100 0.0 103820
07:00−23юв1290100 0.0 103720
10:00−18юв118286 0.0 1033195
13:00−12с017493 0.0 1028377
16:00−12сз2283100 0.0 1025222
19:00−15зсз1192100 0.0 102620
22:00−16зсз0089100 0.0 102520
2 марта, вт
вт201:00−17в0089100 0.0 102420
04:00−16юв0089100 0.0 102220
07:00−15сз1190100 0.0 102220
10:00−13зсз1191100 0.1 1020166
13:00−9ссз1190100 0.4 1019280
16:00−8сз1191100 0.4 1018225
19:00−13с1196100 0.4 102021
22:00−14з0196100 0.0 102120
3 марта, ср
ср301:00−14вюв1196100 0.0 101920
04:00−14ссз0094100 0.0 101820
07:00−14з0094100 0.0 101820
10:00−10юз1192100 0.4 1016234
13:00−7сз1188100 0.5 1015423
16:00−6ссз1189100 0.0 1014281
19:00−12сз119599 0.1 101721
22:00−15сз1196100 0.0 101920
4 марта, чт
чт401:00−16ююв019993 0.0 102220
04:00−16в119793 0.1 102520
07:00−16вюв119696 0.1 102820
10:00−11юв0191100 0.0 1028190
13:00−7з1186100 0.1 1027379
16:00−6зсз1188100 0.0 1026288
19:00−14с119873 0.0 102921
22:00−16в119633 0.0 103120